DW4246 Weather Reports


time (UTC)temp
C
wind
direction
speed
KPH
gust
KPH
rain 1hr
cm
rain 24hr
cm
rain mn
cm
humidity
%
barometer
mb
20260506150010 13 343 3.2 8.0 0.00 0.00 0.00 86 1019.5
20260506144507 12 309 4.8 8.0 0.00 0.00 0.00 88 1019.5
20260506143003 12 306 3.2 9.7 0.00 0.00 0.00 89 1019.4
20260506141501 12 315 3.2 8.0 0.00 0.00 0.00 89 1019.2
20260506140101 11 265 1.6 6.4 0.00 0.00 0.00 89 1019.0
20260506134557 11 257 0.0 6.4 0.00 0.00 0.00 90 1018.9
20260506133056 11 306 0.0 4.8 0.00 0.00 0.00 90 1018.6
20260506131553 11 310 0.0 4.8 0.00 0.00 0.00 90 1018.5
20260506130051 11 314 1.6 6.4 0.00 0.00 0.00 90 1018.4
20260506124549 11 298 0.0 6.4 0.00 0.00 0.00 90 1018.3
20260506123048 11 265 1.6 4.8 0.00 0.00 0.00 90 1018.2
20260506121546 11 312 1.6 4.8 0.00 0.00 0.00 90 1018.0
20260506120055 11 311 0.0 4.8 0.00 0.00 0.00 90 1017.9
20260506114555 11 329 1.6 4.8 0.00 0.00 0.00 90 1017.8
20260506113044 11 319 0.0 4.8 0.00 0.00 0.00 89 1017.9
20260506111544 11 301 0.0 6.4 0.00 0.00 0.00 90 1017.9
20260506110049 11 310 1.6 4.8 0.00 0.00 0.00 89 1017.8
20260506104541 11 313 1.6 3.2 0.00 0.00 0.00 89 1017.8
20260506103040 11 13 0.0 3.2 0.00 0.00 0.00 89 1017.7
20260506101541 11 304 1.6 6.4 0.00 0.00 0.00 89 1017.7
20260506100041 11 340 1.6 4.8 0.00 0.00 0.00 89 1017.7
20260506094548 12 350 1.6 4.8 0.00 0.00 0.00 88 1017.6
20260506093035 12 309 1.6 4.8 0.00 0.00 0.00 87 1017.5
20260506091534 12 316 3.2 9.7 0.00 0.00 0.00 86 1017.2
20260506090033 12 281 4.8 12.9 0.00 0.00 0.00 86 1017.1
20260506084530 12 300 1.6 9.7 0.00 0.00 0.00 85 1017.1
20260506083030 12 319 1.6 12.9 0.00 0.00 0.00 87 1017.2
20260506081529 12 320 3.2 8.0 0.00 0.00 0.00 88 1017.9
20260506073023 12 344 0.0 0.0 0.00 0.00 0.00 87 1017.5
20260506071528 12 314 0.0 0.0 0.00 0.00 0.00 87 1017.3
20260506061517 13 321 0.0 3.2 0.00 0.00 0.00 85 1016.4
20260506044507 15 310 3.2 8.0 0.00 0.00 0.00 79 1016.0
20260506043006 15 304 3.2 6.4 0.00 0.00 0.00 78 1015.7
20260506041503 15 304 3.2 6.4 0.00 0.00 0.00 76 1015.5
20260506040001 16 279 1.6 6.4 0.00 0.00 0.00 75 1015.4
20260506034614 16 302 1.6 6.4 0.00 0.00 0.00 73 1015.1
20260506033059 16 294 0.0 9.7 0.00 0.00 0.00 72 1014.9
20260506031605 16 281 0.0 8.0 0.00 0.00 0.00 71 1014.7
20260506024557 17 273 1.6 8.0 0.00 0.00 0.00 69 1014.4
20260506023058 17 278 3.2 9.7 0.00 0.00 0.00 68 1014.3
20260506021559 17 294 4.8 11.3 0.00 0.00 0.00 67 1014.2
20260506020101 17 292 3.2 12.9 0.00 0.00 0.00 66 1014.1
20260506014555 18 304 6.4 14.5 0.00 0.00 0.00 65 1014.1
20260506013054 18 253 3.2 16.1 0.00 0.00 0.00 66 1014.1
20260506011606 18 326 4.8 14.5 0.00 0.00 0.00 63 1014.1
20260506010057 18 286 4.8 16.1 0.00 0.00 0.00 64 1014.1
20260506004552 19 327 4.8 20.9 0.00 0.00 0.00 63 1014.2
20260506003053 19 338 6.4 16.1 0.00 0.00 0.00 63 1014.2
20260506001552 19 312 6.4 16.1 0.00 0.00 0.00 62 1014.1
20260506000050 19 306 3.2 14.5 0.00 0.00 0.00 62 1014.1
20260505234557 18 355 9.7 20.9 0.00 0.00 0.00 65 1014.0
20260505233102 18 292 11.3 19.3 0.00 0.00 0.00 65 1014.0
20260505231553 18 252 8.0 16.1 0.00 0.00 0.00 67 1014.0
20260505230048 18 270 6.4 17.7 0.00 0.00 0.00 64 1014.1
20260505224548 19 238 6.4 19.3 0.00 0.00 0.00 63 1014.1
20260505223052 18 201 8.0 17.7 0.00 0.00 0.00 64 1014.2
20260505221549 18 231 4.8 22.5 0.00 0.00 0.00 64 1014.2
20260505220045 19 332 9.7 20.9 0.00 0.00 0.00 63 1014.3
20260505214550 18 281 6.4 17.7 0.00 0.00 0.00 63 1014.4
20260505213043 19 175 4.8 22.5 0.00 0.00 0.00 63 1014.4
20260505211543 18 290 6.4 17.7 0.00 0.00 0.00 63 1014.5
20260505210042 18 289 3.2 16.1 0.00 0.00 0.00 62 1014.5
20260505204540 17 242 9.7 19.3 0.00 0.00 0.00 66 1014.7
20260505203037 17 256 8.0 19.3 0.00 0.00 0.00 66 1014.7
20260505201536 17 306 8.0 17.7 0.00 0.00 0.00 67 1014.7
20260505200041 17 306 6.4 24.1 0.00 0.00 0.00 68 1014.9
20260505194533 17 317 6.4 17.7 0.00 0.00 0.00 68 1015.0
20260505193031 16 304 8.0 17.7 0.00 0.00 0.00 68 1015.0
20260505191531 16 302 4.8 17.7 0.00 0.00 0.00 70 1015.1
20260505190036 16 306 11.3 19.3 0.00 0.00 0.00 69 1015.1
20260505184527 16 323 8.0 20.9 0.00 0.00 0.00 70 1014.9
20260505183029 16 279 4.8 19.3 0.00 0.00 0.00 72 1015.0
20260505181525 16 327 8.0 20.9 0.00 0.00 0.00 74 1014.9
20260505180023 15 303 8.0 19.3 0.00 0.00 0.00 73 1014.8
20260505174519 14 292 6.4 19.3 0.00 0.00 0.00 76 1014.7
20260505173017 15 278 6.4 16.1 0.00 0.00 0.00 77 1014.6
20260505171518 13 293 8.0 19.3 0.00 0.00 0.00 78 1014.5
20260505170016 13 313 6.4 14.5 0.00 0.00 0.00 79 1014.7
20260505164511 13 312 6.4 14.5 0.00 0.00 0.00 81 1014.5
20260505163011 13 306 4.8 14.5 0.00 0.00 0.00 82 1014.5
20260505161510 13 304 1.6 12.9 0.00 0.00 0.00 82 1014.4
20260505153004 12 355 0.0 9.7 0.00 0.00 0.00 85 1014.3
20260505151504 12 319 0.0 6.4 0.00 0.00 0.00 86 1014.2